Zurück zum Katalog

ATLAS 5 CENTAUR DEB

AktivHEO
NORAD 44679·DEBRIS·🇺🇸 United States

Gestartet Oct 17, 2018 von Cape Canaveral Space Force Station

Loading…

Nächste Überflüge (nächste 24 Stunden)

TLE

AktuellSource: Space-Track

Epoche: Sep 14, 2026, 06:43 UTC

1 44679U 18079AR  26257.27994320 -.00000165  00000-0  00000-0 0  9996
2 44679  13.5327  31.6520 4692652 318.6957  13.9414  1.79398557 48270

Verfolge ATLAS 5 CENTAUR DEB in Echtzeit mit AllMySat

Download on the App Store